Orbital Elements
The following orbital elements are taken from MPC 65054:
Epoch 2008 Aug. 2.0 TT = JDT 2454680.5
T 2008 Aug. 18.5940 TT MPC
q 2.317379 (2000.0) P Q
n 0.0670510 Peri. 141.3142 +0.9614019 +0.0603550
a 6.000661 Node 217.9842 -0.0744198 +0.9963201
e 0.613813 Incl. 25.8606 +0.2648925 +0.0608566
P 14.7
From 652 observations 2008 June 12-2009 Jan. 21, mean residual 0".5.
|